Change the Weather History Date:

Sunday, October 28, 2012

  Actual Average Record
Temperature  
Mean Temperature 32 °F -  
Max Temperature 48 °F 52 °F 70 °F (1948)
Min Temperature 19 °F 32 °F 18 °F (1980)
Degree Days  
Heating Degree Days 32    
Moisture  
Dew Point 22 °F    
Average Humidity 72    
Maximum Humidity 92    
Minimum Humidity 34    
Precipitation  
Precipitation 0.00 in - - ()
Sea Level Pressure  
Sea Level Pressure 30.38 in    
Wind  
Wind Speed 2 mph (WSW)    
Max Wind Speed 12 mph    
Max Gust Speed 17 mph    
Visibility 10 miles    
Events      
Averages and records for this station are not official NWS values.
T = Trace of Precipitation, MM = Missing Value Source: NWS Daily Summary

Daily Weather History Graph

Daily Weather History Graph

Search for Another Location

Airport or City:

Trip Planner

Search our weather history database for the weather conditions in past years. The results will help you decide how hot, cold, wet, or windy it might be!

Date:

Astronomy

Oct. 28, 2012 Rise Set
Actual Time 7:40 AM CDT 5:53 PM CDT
Civil Twilight 7:09 AM CDT 6:25 PM CDT
Nautical Twilight 6:33 AM CDT 7:00 PM CDT
Astronomical Twilight 5:58 AM CDT 7:35 PM CDT
Moon 5:11 PM CDT (10/28) 6:32 AM CDT (10/28)
Length of Visible Light 11h 16m
Length of Day
10h 13m
Waxing Gibbous, 99% of the Moon is Illuminated
Oct 28
Waxing Gibbous
Oct 29
Full
Nov 6
Last Quarter
Nov 13
New
Nov 20
First Quarter

Hourly Weather History & Observations

Time (CDT) Temp. Windchill Dew Point Humidity Pressure Visibility Wind Dir Wind Speed Gust Speed Precip Events Conditions
12:53 AM 23.0 °F - 19.9 °F 88% 30.39 in 10.0 mi Calm Calm - N/A   Clear
1:53 AM 21.9 °F - 18.0 °F 85% 30.40 in 10.0 mi Calm Calm - N/A   Scattered Clouds
2:53 AM 21.0 °F - 18.0 °F 88% 30.40 in 10.0 mi Calm Calm - N/A   Mostly Cloudy
3:53 AM 23.0 °F - 19.9 °F 88% 30.39 in 10.0 mi Calm Calm - N/A   Overcast
4:53 AM 21.0 °F - 19.0 °F 92% 30.39 in 10.0 mi Calm Calm - N/A   Scattered Clouds
5:53 AM 19.0 °F - 17.1 °F 92% 30.39 in 10.0 mi Calm Calm - N/A   Clear
6:53 AM 21.0 °F 16.2 °F 18.0 °F 88% 30.39 in 10.0 mi WSW 3.5 mph - N/A   Partly Cloudy
7:53 AM 19.9 °F - 16.0 °F 85% 30.40 in 10.0 mi Calm Calm - N/A   Clear
8:53 AM 26.1 °F - 23.0 °F 88% 30.41 in 10.0 mi Calm Calm - N/A   Clear
9:53 AM 32.0 °F 28.7 °F 26.1 °F 79% 30.40 in 10.0 mi SSW 3.5 mph - N/A   Clear
10:53 AM 39.0 °F 36.8 °F 24.1 °F 55% 30.39 in 10.0 mi SW 3.5 mph - N/A   Mostly Cloudy
11:53 AM 44.1 °F 38.1 °F 21.9 °F 42% 30.38 in 10.0 mi SSW 11.5 mph 17.3 mph N/A   Clear
12:53 PM 44.1 °F 39.5 °F 21.0 °F 40% 30.37 in 10.0 mi WSW 8.1 mph - N/A   Clear
2:53 PM 46.0 °F 41.4 °F 19.9 °F 35% 30.35 in 10.0 mi WSW 9.2 mph - N/A   Mostly Cloudy
3:53 PM 46.0 °F 41.9 °F 19.0 °F 34% 30.35 in 10.0 mi WSW 8.1 mph - N/A   Mostly Cloudy
4:53 PM 44.1 °F 40.8 °F 18.0 °F 35% 30.35 in 10.0 mi SW 5.8 mph - N/A   Mostly Cloudy
5:53 PM 41.0 °F - 19.9 °F 43% 30.36 in 10.0 mi Calm Calm - N/A   Overcast
6:53 PM 39.0 °F 32.8 °F 28.9 °F 67% 30.37 in 10.0 mi NE 9.2 mph - N/A   Overcast
7:53 PM 37.0 °F 32.4 °F 30.0 °F 76% 30.38 in 10.0 mi NNE 5.8 mph - N/A   Overcast
8:53 PM 32.0 °F 28.7 °F 27.0 °F 82% 30.38 in 10.0 mi NE 3.5 mph - N/A   Scattered Clouds
9:53 PM 33.1 °F - 28.0 °F 82% 30.38 in 10.0 mi Calm Calm - N/A   Scattered Clouds
10:53 PM 28.9 °F - 27.0 °F 92% 30.38 in 10.0 mi Calm Calm - N/A   Clear
11:53 PM 28.9 °F 23.9 °F 26.1 °F 89% 30.38 in 10.0 mi West 4.6 mph - N/A   Clear